DELTA 1 R/B

Last updated on Sun Dec 14 2025 00:02:15 GMT+0000 (Coordinated Universal Time)

1 20323U 89089B 25347.19158895 .00000546 00000+0 14379-3 0 9992 2 20323 97.0751 203.3576 0070074 36.8881 323.7107 14.50572894883196
UTC large
Height (km)
Speed (km/s)
/
Latitude / Longitude
Inclination (degrees)
Orbital Period (minutes)
Azimuth
Elevation
Range (km)
Doppler Factor

Next 0 passes for location: London (51.5072 / 0.1276)

Sorry there are no passes over London.